Hourly Data Report for October 02, 2017

All times are specified in Local Standard Time (LST). Add 1 hour to adjust for Daylight Saving Time where and when it is observed.

SARNIA
ONTARIO

42°59'58.000" N
82°18'32.000" W
181.40 m
6127510
71704
YZR

Download Data

Hourly Data (October 2017)
Hourly Data Report for October 2, 2017
Temp Definition
°C
Dew Point Temp Definition
°C
Rel Hum Definition
%
Wind Dir Definition
10's deg

Wind Spd Definition
km/h
Visibility Definition
km
Stn Press Definition
kPa
Hmdx Definition


Wind Chill Definition


Weather Definition


TIME
00:00 Legend Double Dagger 8.6 5.7 82 14 8 16.1 100.35     LegendNANA
01:00 Legend Double Dagger 7.7 5.4 86 14 9 16.1 100.35     LegendNANA
02:00 Legend Double Dagger 7.7 5.7 87 13 9 16.1 100.34     LegendNANA
03:00 Legend Double Dagger 8.0 6.1 88 13 5 16.1 100.34     LegendNANA
04:00 Legend Double Dagger 8.3 6.4 88 13 13 16.1 100.37     LegendNANA
05:00 Legend Double Dagger 9.2 7.3 88 14 11 16.1 100.40     LegendNANA
06:00 Legend Double Dagger 8.6 7.1 90 15 5 16.1 100.48     LegendNANA
07:00 Legend Double Dagger 8.6 7.2 91 13 9 16.1 100.51     LegendNANA
08:00 Legend Double Dagger 12.0 9.4 84 13 15 16.1 100.52     LegendNANA
09:00 Legend Double Dagger 16.1 11.6 74 15 11 16.1 100.55     LegendNANA
10:00 Legend Double Dagger 19.3 11.2 59 18 18 16.1 100.60     LegendNANA
11:00 Legend Double Dagger 21.2 8.2 43 18 15 16.1 100.59     LegendNANA
12:00 Legend Double Dagger 21.9 8.6 42 17 13 16.1 100.57     LegendNANA
13:00 Legend Double Dagger 22.5 7.2 37 18 18 16.1 100.54     LegendNANA
14:00 Legend Double Dagger 23.1 6.7 34 19 15 16.1 100.45     LegendNANA
15:00 Legend Double Dagger 23.3 6.4 33 14 15 16.1 100.42     LegendNANA
16:00 Legend Double Dagger 23.4 5.2 30 16 15 16.1 100.40     LegendNANA
17:00 Legend Double Dagger 22.5 6.6 35 17 15 16.1 100.43     LegendNANA
18:00 Legend Double Dagger 19.6 7.4 45 16 13 16.1 100.50     LegendNANA
19:00 Legend Double Dagger 16.3 7.0 54 15 9 16.1 100.51     LegendNANA
20:00 Legend Double Dagger 13.5 7.4 66 14 11 16.1 100.54     LegendNANA
21:00 Legend Double Dagger 13.9 8.6 70 16 9 16.1 100.57     LegendNANA
22:00 Legend Double Dagger 12.4 8.9 79 15 9 16.1 100.60     LegendNANA
23:00 Legend Double Dagger 11.7 9.7 87 15 4 16.1 100.57     LegendNANA

Notes on Data Quality.

Legend

  • E = Estimated
  • M = Missing
  • NA = Not Available
  • ‡ = Partner data that is not subject to review by the National Climate Archives
Date modified: